Location: Rayville (historical)
(39.9992°N, 99.6815°W)
Time: 05:12:06
(UTC+00:00)

NOSS 3-1 (C) - Pass Details

Date: 18 February 2020
Orbit: 759 x 1449 km, 63.4° (Epoch: 26 March)

Event Time Altitude Azimuth Distance (km) Brightness Sun altitude
Exits shadow 11:04:00 58° 278° (W) 1,528 4.1 -28.2°
Maximum altitude 11:05:11 63° 242° (WSW) 1,480 4.1 -28.0°
Drops below altitude 10° 11:13:48 10° 163° (SSE) 3,529 6.5 -26.4°
Sets 11:16:51 0° 161° (SSE) 4,526 7.1 -25.8°
